Location: LDNL
(36.4545°S, 141.6685°E)
Time: 23:41:19
(UTC+10:00)

X-37B - Pass Details

Date: 05 July 2022
Orbit: 328 x 343 km, 45.0° (Epoch: 12 August)

Event Time Altitude Azimuth Distance (km) Brightness Sun altitude
Exits shadow 07:00:42 11° 273° (W) 1,251 2.6 -9.0°
Maximum altitude 07:03:19 38° 203° (SSW) 554 1.0 -8.5°
Drops below altitude 10° 07:06:07 10° 132° (SE) 1,315 3.6 -8.0°
Sets 07:08:14 0° 123° (ESE) 2,159 4.9 -7.6°
